Tracking 34085 objects as of 13-May-2026
HD Live streaming from Space Station
objects crossing your sky now

STARLINK-37010

Track STARLINK-37010 now!
10-day predictions
STARLINK-37010 is classified as:


NORAD ID: 68289
Int'l Code: 2026-055AD
Perigee: 469.2 km
Apogee: 470.5 km
Inclination: 53.2 °
Period: 93.8 minutes
Semi major axis: 6840 km
RCS: Unknown
Launch date: March 19, 2026
Source: United States (US)
Launch site: AIR FORCE EASTERN TEST RANGE (AFETR)
Your satellite tracking list
Your tracking list is empty




NASA's NSSDC Master Catalog

Two Line Element Set (TLE):
1 68289U 26055AD  26132.93039984  .00020384  00000-0  61283-3 0  9990
2 68289  53.1596  20.3489 0000977 103.3830 256.7282 15.34397157  9771
Source of the keplerian elements: AFSPC